2023/09/22 00:00:00, 0.2,20.4
2023/09/22 00:10:00, 0.3,20.3
2023/09/22 00:20:00, 1.5,20.1
2023/09/22 00:30:00, 3.8,20.2
2023/09/22 00:40:00, 3.2,20.4
2023/09/22 00:50:00, 2.0,20.1
2023/09/22 01:00:00, 1.6,20.3
2023/09/22 01:10:00, 1.7,20.4
2023/09/22 01:20:00, 1.9,20.2
2023/09/22 01:30:00, 2.1,20.2
2023/09/22 01:40:00, 2.2,20.4
2023/09/22 01:50:00, 2.3,20.2
2023/09/22 02:00:00, 2.3,19.8
2023/09/22 02:10:00, 2.2,20.3
2023/09/22 02:20:00, 2.2,20.4
2023/09/22 02:30:00, 2.2,20.3
2023/09/22 02:40:00, 2.3,20.0
2023/09/22 02:50:00, 2.4,20.0
2023/09/22 03:00:00, 2.4,20.1
2023/09/22 03:10:00, 2.3,20.1
2023/09/22 03:20:00, 2.3,19.9
2023/09/22 03:30:00, 2.4,20.0
2023/09/22 03:40:00, 2.4,19.9
2023/09/22 03:50:00, 2.4,20.1
2023/09/22 04:00:00, 2.4,19.9
2023/09/22 04:10:00, 2.5,19.8
2023/09/22 04:20:00, 2.5,20.0
2023/09/22 04:30:00, 2.5,19.6
2023/09/22 04:40:00, 2.4,19.9
2023/09/22 04:50:00, 2.4,20.1
2023/09/22 05:00:00, 2.2,20.1
2023/09/22 05:10:00, 2.0,19.9
2023/09/22 05:20:00, 1.7,19.9
2023/09/22 05:30:00, 1.3,19.8
2023/09/22 05:40:00, 1.0,19.8
2023/09/22 05:50:00, 0.8,19.6
2023/09/22 06:00:00, 0.8,19.7
2023/09/22 06:10:00, 0.9,19.9
2023/09/22 06:20:00, 0.9,20.1
2023/09/22 06:30:00, 0.8,20.1
2023/09/22 06:40:00, 0.9,20.0
2023/09/22 06:50:00, 0.8,20.0
2023/09/22 07:00:00, 0.8,20.2
2023/09/22 07:10:00, 1.0,20.4
2023/09/22 07:20:00, 1.0,20.2
2023/09/22 07:30:00, 1.0,20.4
2023/09/22 07:40:00, 1.0,20.3
2023/09/22 07:50:00, 1.0,20.4
2023/09/22 08:00:00, 0.9,20.5
2023/09/22 08:10:00, 0.9,20.4
2023/09/22 08:20:00, 1.0,20.6
2023/09/22 08:30:00, 0.9,20.4
2023/09/22 08:40:00, 0.9,20.4
2023/09/22 08:50:00, 0.9,20.5
2023/09/22 09:00:00, 1.0,20.4
2023/09/22 09:10:00, 0.9,20.2
2023/09/22 09:20:00, 1.0,20.6
2023/09/22 09:30:00, 1.0,20.8
2023/09/22 09:40:00, 1.0,20.3
2023/09/22 09:50:00, 1.0,20.7
2023/09/22 10:00:00, 0.9,20.3
2023/09/22 10:10:00, 0.9,20.7
2023/09/22 10:20:00, 1.0,20.7
2023/09/22 10:30:00, 0.9,20.6
2023/09/22 10:40:00, 1.0,20.7
2023/09/22 10:50:00, 0.9,20.8
2023/09/22 11:00:00, 0.8,20.7
2023/09/22 11:10:00, 1.2,21.1
2023/09/22 11:20:00, 1.0,21.5
2023/09/22 11:30:00, 0.8,21.7
2023/09/22 11:40:00, 0.9,21.6
2023/09/22 11:50:00, 1.0,22.0
2023/09/22 12:00:00, 0.9,22.2
2023/09/22 12:10:00, 1.0,22.6
2023/09/22 12:20:00, 0.8,23.1
2023/09/22 12:30:00, 0.9,22.9
2023/09/22 12:40:00, 0.9,23.2
2023/09/22 12:50:00, 0.9,23.6
2023/09/22 13:00:00, 0.9,23.5
2023/09/22 13:10:00, 0.8,23.6
2023/09/22 13:20:00, 0.8,23.6
2023/09/22 13:30:00, 0.9,23.2
2023/09/22 13:40:00, 0.8,23.0
2023/09/22 13:50:00, 0.7,23.9
2023/09/22 14:00:00, 0.8,22.6
2023/09/22 14:10:00, 0.9,22.6
2023/09/22 14:20:00, 0.9,23.2
2023/09/22 14:30:00, 0.9,22.8
2023/09/22 14:40:00, 0.9,21.9
2023/09/22 14:50:00, 0.9,21.5
2023/09/22 15:00:00, 0.8,21.1
2023/09/22 15:10:00, 0.9,21.3
2023/09/22 15:20:00, 1.0,21.4
2023/09/22 15:30:00, 1.0,21.3
2023/09/22 15:40:00, 1.2,21.6
2023/09/22 15:50:00, 1.4,21.5
2023/09/22 16:00:00, 1.4,21.3
2023/09/22 16:10:00, 1.4,21.6
2023/09/22 16:20:00, 1.5,21.4
2023/09/22 16:30:00, 1.4,21.3
2023/09/22 16:40:00, 1.5,21.5
2023/09/22 16:50:00, 1.5,21.7
2023/09/22 17:00:00, 1.8,22.0
2023/09/22 17:10:00, 1.8,21.8
2023/09/22 17:20:00, 1.8,21.7
2023/09/22 17:30:00, 1.7,21.4
2023/09/22 17:40:00, 1.5,21.4
2023/09/22 17:50:00, 1.0,20.9
2023/09/22 18:00:00, 0.9,20.9
2023/09/22 18:10:00, 0.8,20.7
2023/09/22 18:20:00, 0.7,20.4
2023/09/22 18:30:00, 0.7,20.2
2023/09/22 18:40:00, 0.7,20.1
2023/09/22 18:50:00, 0.6,20.0
2023/09/22 19:00:00, 0.6,19.9
2023/09/22 19:10:00, 0.5,19.9
2023/09/22 19:20:00, 0.4,19.8
2023/09/22 19:30:00, 0.5,19.9
2023/09/22 19:40:00, 0.5,19.7
2023/09/22 19:50:00, 0.6,19.6
2023/09/22 20:00:00, 0.5,19.9
2023/09/22 20:10:00, 0.5,19.7
2023/09/22 20:20:00, 0.5,19.8
2023/09/22 20:30:00, 0.5,19.6
2023/09/22 20:40:00, 0.5,19.6
2023/09/22 20:50:00, 0.5,19.5
2023/09/22 21:00:00, 0.4,19.7
2023/09/22 21:10:00, 0.5,19.7
2023/09/22 21:20:00, 0.5,19.4
2023/09/22 21:30:00, 0.5,19.3
2023/09/22 21:40:00, 0.7,19.4
2023/09/22 21:50:00, 0.7,19.4
2023/09/22 22:00:00, 0.7,19.2
2023/09/22 22:10:00, 0.8,18.9
2023/09/22 22:20:00, 0.7,19.1
2023/09/22 22:30:00, 0.8,19.2
2023/09/22 22:40:00, 0.8,19.3
2023/09/22 22:50:00, 0.8,19.4
2023/09/22 23:00:00, 0.8,19.3
2023/09/22 23:10:00, 0.8,19.5
2023/09/22 23:20:00, 0.9,19.6
2023/09/22 23:30:00, 0.8,19.3
2023/09/22 23:40:00, 0.9,19.5
2023/09/22 23:50:00, 1.1,19.4
